sat.trackr.live / text

‹ back to catalog

SITRO-AIS-65

NORAD 67266 · 2025-313U

PAYLOAD ACTIVE UNKNOWN

§ Identity

Operator
Country
CIS
Launch date
2025-12-28
Launch site
VOSTO
Launch vehicle
Mass (kg)
RCS (m²)

External: N2YO · Heavens-Above · Gunter

§ Orbital elements

Epoch: 2026-05-24T22:11:34.784160Z

Period
94.55 min
Inclination
97.3962°
Eccentricity
0.0016060
Mean motion
15.22964599 rev/d
Perigee alt
485.9 km
Apogee alt
507.9 km
Semi-major
6,875.0 km
B*
3.6321e-4
RAAN
220.0174°
Arg perigee
87.1397°
Mean anomaly
273.1677°
Rev number
2,241

§ Raw data

SITRO-AIS-651 67266U 25313U   26144.92470815  .00008494  00000+0  36321-3 0  99962 67266  97.3962 220.0174 0016060  87.1397 273.1677 15.22964599 22413

JSON: /api/v1/satellites/67266 · /tle

For live sub-satellite position, see the globe view (requires WebGL).

§ Visibility from observer

Set your observer location to see the next 7 days of passes ≥ 10°. The values pass through the URL so the page stays shareable.

No JS? Fill the form by hand. The geolocation button needs JavaScript.